DW4230 Weather Reports


Display with metric or nautical units.
time (UTC)temp
F
wind
direction
speed
MPH
gust
MPH
rain 1hr
in
rain 24hr
in
rain mn
in
humidity
%
barometer
mb
20260902214523 69 113 3.0 10.0 0.00 0.03 0.00 72 1018.7
20260902213059 69 136 3.0 10.0 0.00 0.07 0.00 72 1019.1
20260902211510 70 143 4.0 11.0 0.00 0.07 0.00 71 1019.2
20260902210043 70 153 3.0 10.0 0.00 0.07 0.00 72 1019.1
20260902204523 70 133 4.0 11.0 0.00 0.07 0.00 71 1019.1
20260902203056 71 174 3.0 9.0 0.00 0.08 0.00 72 1018.9
20260902201534 71 163 5.0 10.0 0.00 0.08 0.00 71 1019.1
20260902200114 72 93 3.0 12.0 0.00 0.08 0.00 68 1019.4
20260902194528 72 124 4.0 11.0 0.00 0.08 0.00 69 1019.5
20260902193112 72 193 6.0 16.0 0.00 0.10 0.00 68 1019.4
20260902191543 71 99 4.0 14.0 0.00 0.10 0.00 71 1019.4
20260902190007 72 268 5.0 13.0 0.00 0.10 0.00 70 1019.4
20260902184550 72 175 4.0 15.0 0.00 0.10 0.00 70 1019.3
20260902183109 73 129 3.0 15.0 0.00 0.26 0.00 70 1019.2
20260902181538 73 124 4.0 11.0 0.00 0.26 0.00 70 1019.7
20260902180132 72 129 5.0 12.0 0.00 0.26 0.00 70 1019.6
20260902174537 73 185 4.0 14.0 0.00 0.26 0.00 71 1019.5
20260902173113 73 77 5.0 12.0 0.00 0.26 0.00 70 1019.4
20260902171542 72 141 4.0 12.0 0.00 0.26 0.00 71 1019.7
20260902170015 72 96 2.0 13.0 0.00 0.26 0.00 72 1019.7
20260902164557 73 124 3.0 9.0 0.00 0.26 0.00 71 1019.9
20260902163016 73 197 3.0 8.0 0.00 0.26 0.00 70 1020.1
20260902161554 73 112 3.0 9.0 0.00 0.26 0.00 68 1020.2
20260902160021 72 141 3.0 9.0 0.00 0.26 0.00 70 1020.4
20260902154559 73 83 3.0 8.0 0.00 0.26 0.00 71 1020.3
20260902153027 72 124 2.0 10.0 0.00 0.28 0.00 72 1020.3
20260902151609 72 119 6.0 10.0 0.00 0.28 0.00 70 1020.2
20260902150034 72 79 3.0 10.0 0.00 0.28 0.00 71 1020.4
20260902144511 71 179 2.0 11.0 0.00 0.28 0.00 73 1019.8
20260902143041 71 114 4.0 10.0 0.00 0.28 0.00 72 1019.8
20260902141505 71 87 4.0 10.0 0.00 0.28 0.00 76 1019.8
20260902140035 70 90 5.0 11.0 0.00 0.28 0.00 77 1019.5
20260902134608 69 106 4.0 10.0 0.00 0.28 0.00 80 1019.5
20260902133027 68 70 3.0 8.0 0.00 0.28 0.00 81 1019.4
20260902131559 67 59 3.0 9.0 0.00 0.28 0.00 81 1019.4
20260902130021 67 62 1.0 9.0 0.00 0.28 0.00 81 1019.5
20260902124611 67 83 3.0 9.0 0.00 0.28 0.00 81 1019.4
20260902123041 67 119 4.0 11.0 0.00 0.28 0.00 81 1019.5
20260902121504 67 115 5.0 10.0 0.00 0.28 0.00 81 1019.8
20260902120046 67 53 5.0 11.0 0.00 0.28 0.00 79 1019.9
20260902114516 67 59 4.0 11.0 0.00 0.28 0.00 80 1019.7
20260902113058 67 91 4.0 10.0 0.00 0.28 0.00 81 1019.5
20260902110118 66 28 4.0 10.0 0.00 0.28 0.00 81 1019.1
20260902104527 66 119 5.0 12.0 0.00 0.28 0.00 82 1018.9
20260902103055 66 175 4.0 11.0 0.00 0.28 0.00 83 1019.0
20260902101611 66 78 4.0 11.0 0.00 0.28 0.00 82 1018.8
20260902100057 65 95 3.0 12.0 0.00 0.28 0.00 83 1018.9
20260902094506 65 98 4.0 10.0 0.00 0.28 0.00 84 1018.7
20260902093038 66 93 3.0 10.0 0.00 0.28 0.00 84 1018.4
20260902091509 65 65 5.0 11.0 0.00 0.28 0.00 88 1018.4
20260902090029 64 77 4.0 9.0 0.00 0.28 0.00 92 1018.6
20260902084624 64 19 3.0 6.0 0.00 0.28 0.00 92 1018.4
20260902083024 64 40 3.0 9.0 0.00 0.28 0.00 91 1018.2
20260902081607 65 39 5.0 8.0 0.00 0.28 0.00 90 1018.1
20260902080032 66 46 4.0 13.0 0.00 0.28 0.00 86 1018.3
20260902074547 66 93 4.0 11.0 0.00 0.28 0.00 87 1018.3
20260902073009 66 83 5.0 14.0 0.00 0.28 0.00 86 1018.1
20260902071547 66 87 6.0 12.0 0.00 0.28 0.00 85 1017.8
20260902070016 66 76 5.0 12.0 0.00 0.28 0.00 83 1017.8
20260902064610 64 56 4.0 12.0 0.00 0.28 0.00 90 1018.0
20260902063037 64 77 3.0 6.0 0.00 0.28 0.00 92 1018.0
20260902061611 64 74 4.0 9.0 0.00 0.28 0.00 91 1018.1
20260902060036 64 48 3.0 8.0 0.00 0.28 0.00 89 1018.1
20260902054612 65 108 4.0 8.0 0.00 0.28 0.00 85 1018.1
20260902053028 65 80 3.0 8.0 0.00 0.28 0.00 88 1017.7
20260902051606 65 56 4.0 10.0 0.00 0.28 0.00 88 1017.6
20260902050028 65 150 4.0 10.0 0.00 0.28 0.00 88 1017.6
20260902044553 65 139 3.0 9.0 0.00 0.28 0.00 88 1017.5
20260902043003 65 69 3.0 9.0 0.00 0.28 0.28 87 1017.4
20260902041539 65 137 3.0 10.0 0.00 0.28 0.28 87 1017.5
20260902040011 65 129 3.0 10.0 0.00 0.28 0.28 86 1017.4
20260902034604 65 78 4.0 12.0 0.00 0.28 0.28 86 1017.3
20260902033027 65 93 4.0 10.0 0.00 0.28 0.28 85 1017.3
20260902031612 65 57 3.0 8.0 0.00 0.28 0.28 86 1017.4
20260902030043 65 97 4.0 7.0 0.00 0.28 0.28 85 1017.3
20260902024505 65 86 3.0 9.0 0.00 0.28 0.28 84 1017.1
20260902023046 64 82 2.0 7.0 0.00 0.28 0.28 80 1017.1
20260902021507 64 58 3.0 9.0 0.00 0.28 0.28 77 1016.8
20260902020039 63 78 3.0 7.0 0.00 0.28 0.28 77 1016.6
20260902014510 63 74 2.0 7.0 0.00 0.28 0.28 81 1016.7
20260902013049 63 82 3.0 6.0 0.00 0.28 0.28 86 1016.9
20260902011530 63 87 3.0 8.0 0.00 0.28 0.28 89 1016.6
20260902004524 63 114 3.0 7.0 0.00 0.28 0.28 89 1017.0
20260902003105 63 138 3.0 9.0 0.00 0.28 0.28 91 1017.0
20260902001543 62 158 2.0 7.0 0.00 0.28 0.28 91 1016.9
20260902000003 62 155 3.0 10.0 0.00 0.28 0.28 92 1016.8
20260901234546 62 171 2.0 13.0 0.00 0.28 0.28 93 1016.4
20260901233013 62 114 2.0 8.0 0.00 0.28 0.28 93 1016.4
20260901231553 62 124 1.0 7.0 0.00 0.28 0.28 93 1016.5
20260901230023 62 188 1.0 5.0 0.01 0.28 0.28 92 1016.5
20260901224619 61 133 2.0 10.0 0.01 0.28 0.28 92 1016.5
20260901223027 61 135 2.0 10.0 0.03 0.28 0.28 92 1016.6
20260901220018 60 191 5.0 14.0 0.05 0.28 0.28 92 1016.8